W8DRH-13 Weather Reports


Display with metric or nautical units.
time (UTC)temp
F
wind
direction
speed
MPH
gust
MPH
rain 1hr
in
rain 24hr
in
rain mn
in
humidity
%
barometer
mb
20260506221801 53 336 4.0 7.0 0.00 0.36 0.36 58 1010.9
20260506221258 53 310 4.0 4.0 0.00 0.36 0.36 62 1010.8
20260506220755 54 289 6.0 8.0 0.00 0.36 0.36 57 1010.9
20260506220250 54 285 6.0 8.0 0.00 0.36 0.36 57 1010.7
20260506215747 54 290 3.0 3.0 0.00 0.36 0.36 61 1010.6
20260506215243 54 289 5.0 7.0 0.00 0.36 0.36 59 1010.6
20260506214739 54 300 2.0 4.0 0.00 0.36 0.36 60 1010.4
20260506214236 54 297 3.0 3.0 0.00 0.36 0.36 60 1010.4
20260506213734 53 267 4.0 6.0 0.00 0.36 0.36 58 1010.2
20260506213231 53 270 6.0 8.0 0.00 0.36 0.36 57 1010.4
20260506212729 53 277 5.0 7.0 0.00 0.36 0.36 57 1010.5
20260506212224 53 302 4.0 4.0 0.00 0.36 0.36 59 1010.4
20260506211719 53 286 6.0 8.0 0.00 0.36 0.36 58 1010.4
20260506211217 53 301 6.0 7.0 0.00 0.36 0.36 59 1010.4
20260506210713 53 9 2.0 2.0 0.00 0.36 0.36 59 1010.3
20260506210210 54 34 2.0 2.0 0.00 0.36 0.36 64 1010.3
20260506205707 54 59 1.0 1.0 0.00 0.36 0.36 62 1010.0
20260506205203 54 346 3.0 3.0 0.00 0.36 0.36 60 1010.1
20260506204700 54 55 2.0 2.0 0.00 0.36 0.36 63 1009.8
20260506204156 54 70 1.0 1.0 0.00 0.36 0.36 62 1010.2
20260506203655 54 56 2.0 3.0 0.00 0.36 0.36 59 1010.0
20260506203152 53 19 0.0 1.0 0.00 0.36 0.36 60 1010.1
20260506202649 54 4 3.0 4.0 0.00 0.36 0.36 58 1010.0
20260506202145 54 306 4.0 4.0 0.00 0.36 0.36 61 1009.9
20260506201637 54 359 4.0 4.0 0.00 0.36 0.36 59 1010.1
20260506201133 54 57 2.0 2.0 0.00 0.36 0.36 61 1010.2
20260506200630 54 7 2.0 3.0 0.00 0.36 0.36 59 1010.4
20260506200127 54 36 2.0 2.0 0.00 0.36 0.36 60 1010.3
20260506195623 54 306 6.0 9.0 0.00 0.36 0.36 58 1010.2
20260506195120 54 316 6.0 8.0 0.00 0.36 0.36 57 1010.2
20260506194617 54 303 3.0 3.0 0.00 0.36 0.36 58 1010.2
20260506194113 54 29 2.0 2.0 0.00 0.36 0.36 58 1010.3
20260506193611 54 339 2.0 3.0 0.00 0.36 0.36 57 1010.2
20260506193108 54 318 5.0 6.0 0.00 0.36 0.36 59 1009.9
20260506192604 54 352 3.0 4.0 0.00 0.36 0.36 58 1009.9
20260506192055 54 56 1.0 1.0 0.00 0.36 0.36 61 1010.0
20260506191552 54 357 2.0 3.0 0.00 0.36 0.36 57 1010.1
20260506191047 55 11 1.0 1.0 0.00 0.36 0.36 60 1010.2
20260506190544 54 323 2.0 3.0 0.00 0.36 0.36 60 1010.0
20260506190036 55 339 3.0 4.0 0.00 0.36 0.36 61 1010.0
20260506185534 55 111 0.0 1.0 0.00 0.36 0.36 62 1010.0
20260506185030 54 305 4.0 6.0 0.00 0.36 0.36 60 1009.9
20260506184527 54 319 4.0 4.0 0.00 0.36 0.36 61 1010.1
20260506184025 55 79 1.0 1.0 0.00 0.36 0.36 65 1010.0
20260506183520 54 72 0.0 0.0 0.00 0.36 0.36 63 1010.3
20260506183017 54 67 1.0 1.0 0.00 0.36 0.36 66 1010.4
20260506182514 54 18 1.0 1.0 0.00 0.36 0.36 63 1010.4
20260506182011 54 314 3.0 3.0 0.00 0.36 0.36 61 1010.5
20260506181509 54 316 5.0 8.0 0.00 0.36 0.36 58 1010.4
20260506181006 55 37 2.0 2.0 0.00 0.36 0.36 65 1010.3
20260506180502 55 327 3.0 3.0 0.00 0.36 0.36 58 1010.2
20260506175959 56 331 3.0 4.0 0.00 0.36 0.36 61 1009.9
20260506175455 57 319 3.0 3.0 0.00 0.36 0.36 57 1009.9
20260506174946 57 329 5.0 6.0 0.00 0.36 0.36 62 1009.8
20260506174445 57 8 2.0 3.0 0.00 0.36 0.36 65 1010.1
20260506173941 57 332 2.0 3.0 0.00 0.36 0.36 65 1010.0
20260506173438 57 19 2.0 2.0 0.00 0.36 0.36 66 1010.0
20260506172935 57 328 4.0 4.0 0.00 0.36 0.36 61 1009.9
20260506172432 57 325 6.0 7.0 0.00 0.36 0.36 63 1010.4
20260506171928 57 29 1.0 2.0 0.00 0.36 0.36 68 1010.1
20260506171426 57 303 4.0 4.0 0.00 0.36 0.36 66 1010.1
20260506170918 56 348 2.0 2.0 0.00 0.36 0.36 66 1009.9
20260506170413 55 14 2.0 3.0 0.00 0.36 0.36 69 1009.9
20260506165907 54 0 1.0 2.0 0.00 0.36 0.36 67 1010.0
20260506165405 55 329 3.0 4.0 0.00 0.36 0.36 66 1010.0
20260506164900 56 11 2.0 3.0 0.00 0.36 0.36 69 1009.9
20260506164357 56 11 2.0 3.0 0.00 0.36 0.36 69 1009.7
20260506163850 56 51 1.0 1.0 0.00 0.36 0.36 69 1009.8
20260506163344 56 357 2.0 3.0 0.00 0.36 0.36 70 1009.9
20260506162839 55 357 5.0 7.0 0.00 0.36 0.36 66 1009.8
20260506162337 55 288 4.0 4.0 0.00 0.36 0.36 67 1010.1
20260506161829 55 308 6.0 6.0 0.00 0.36 0.36 69 1010.3
20260506161326 55 319 2.0 3.0 0.00 0.36 0.36 69 1010.2
20260506160824 55 310 2.0 2.0 0.00 0.36 0.36 70 1010.2
20260506160320 55 25 1.0 1.0 0.00 0.36 0.36 71 1010.3
20260506155818 54 357 3.0 3.0 0.00 0.36 0.36 71 1009.9
20260506155315 54 1 2.0 3.0 0.00 0.36 0.36 72 1009.7
20260506153428 53 0 2.0 3.0 0.00 0.36 0.36 74 1009.5
20260506152925 53 31 0.0 0.0 0.00 0.36 0.36 73 1009.5
20260506152421 53 22 0.0 0.0 0.00 0.36 0.36 75 1009.5
20260506151921 52 26 0.0 0.0 0.00 0.36 0.36 75 1009.4
20260506151417 52 0 3.0 3.0 0.00 0.36 0.36 73 1009.8
20260506150915 52 277 3.0 6.0 0.00 0.36 0.36 75 1009.7
20260506150410 51 302 2.0 3.0 0.00 0.36 0.36 76 1009.4
20260506145908 51 313 0.0 0.0 0.00 0.36 0.36 76 1009.5
20260506145403 52 33 1.0 2.0 0.00 0.36 0.36 78 1009.3
20260506144902 51 341 2.0 3.0 0.00 0.36 0.36 76 1009.5
20260506144357 51 354 2.0 4.0 0.00 0.36 0.36 79 1009.4
20260506143856 51 354 2.0 4.0 0.00 0.36 0.36 79 1009.2
20260506143353 51 354 2.0 4.0 0.00 0.36 0.36 79 1009.1
20260506142851 50 80 1.0 2.0 0.00 0.36 0.36 79 1009.0
20260506142349 50 335 2.0 3.0 0.00 0.36 0.36 79 1009.0
20260506141847 50 41 0.0 1.0 0.00 0.36 0.36 81 1008.8
20260506141345 49 328 2.0 4.0 0.00 0.36 0.36 80 1008.5
20260506140843 49 15 1.0 2.0 0.00 0.36 0.36 82 1008.5
20260506140339 48 48 1.0 3.0 0.00 0.36 0.36 81 1008.7
20260506135836 48 1 3.0 3.0 0.00 0.36 0.36 81 1008.8
20260506135333 47 35 0.0 1.0 0.00 0.36 0.36 83 1008.5
20260506134829 47 12 2.0 3.0 0.00 0.36 0.36 84 1008.7
20260506134326 46 2 0.0 0.0 0.00 0.36 0.36 87 1008.6
20260506133823 46 359 1.0 2.0 0.00 0.36 0.36 88 1008.9
20260506133319 45 313 3.0 3.0 0.00 0.36 0.36 93 1008.9
20260506132816 45 1 1.0 1.0 0.00 0.36 0.36 96 1008.9
20260506132313 45 344 3.0 3.0 0.00 0.36 0.36 97 1008.8
20260506131811 45 358 2.0 2.0 0.00 0.36 0.36 98 1008.9
20260506131307 44 34 0.0 0.0 0.00 0.36 0.36 99 1008.9
20260506130804 44 33 0.0 0.0 0.00 0.36 0.36 99 1008.6
20260506130301 44 58 0.0 0.0 0.00 0.36 0.36 99 1008.6
20260506125759 44 65 0.0 0.0 0.00 0.36 0.36 99 1008.3
20260506125257 44 34 0.0 0.0 0.00 0.36 0.36 99 1008.4
20260506124755 44 91 1.0 1.0 0.00 0.36 0.36 99 1008.3
20260506124252 44 41 0.0 1.0 0.00 0.36 0.36 99 1008.2
20260506123749 44 37 0.0 1.0 0.00 0.36 0.36 99 1008.2
20260506123248 43 37 0.0 1.0 0.00 0.36 0.36 99 1008.3
20260506122744 43 19 1.0 1.0 0.00 0.36 0.36 99 1007.9
20260506122241 43 64 0.0 0.0 0.00 0.36 0.36 99 1008.1
20260506121740 43 56 0.0 0.0 0.00 0.36 0.36 99 1007.9
20260506121236 43 37 1.0 1.0 0.00 0.36 0.36 99 1007.8
20260506120733 43 12 1.0 1.0 0.00 0.36 0.36 99 1007.8
20260506120231 43 95 0.0 0.0 0.00 0.36 0.36 99 1007.5
20260506115729 43 90 0.0 1.0 0.00 0.36 0.36 99 1007.4
20260506115227 43 76 0.0 1.0 0.00 0.36 0.36 99 1007.2
20260506114724 42 71 0.0 0.0 0.00 0.36 0.36 99 1007.1
20260506114222 42 67 0.0 1.0 0.00 0.36 0.36 99 1006.8
20260506113720 42 66 0.0 0.0 0.00 0.36 0.36 99 1007.0
20260506113217 42 37 0.0 0.0 0.00 0.36 0.36 99 1006.8
20260506112713 42 69 1.0 2.0 0.00 0.36 0.36 99 1006.8
20260506112211 42 58 0.0 1.0 0.00 0.36 0.36 99 1006.7
20260506111708 42 66 0.0 1.0 0.00 0.36 0.36 99 1006.7
20260506111207 42 44 3.0 4.0 0.00 0.36 0.36 99 1006.9
20260506110703 42 40 2.0 2.0 0.00 0.36 0.36 99 1006.9
20260506110201 42 87 1.0 1.0 0.00 0.36 0.36 99 1007.1
20260506105657 42 44 1.0 2.0 0.00 0.36 0.36 99 1007.2
20260506105154 42 60 0.0 1.0 0.00 0.36 0.36 99 1007.2
20260506104652 41 51 0.0 1.0 0.00 0.36 0.36 99 1006.6
20260506104150 42 353 0.0 1.0 0.00 0.36 0.36 99 1006.3
20260506103647 42 52 2.0 2.0 0.00 0.36 0.36 99 1006.2
20260506103143 42 38 3.0 3.0 0.00 0.36 0.36 99 1006.0
20260506102642 42 73 1.0 2.0 0.00 0.36 0.36 99 1006.3
20260506102139 42 52 2.0 2.0 0.00 0.36 0.36 99 1006.6
20260506101635 42 89 0.0 0.0 0.00 0.36 0.36 99 1006.5
20260506101132 43 48 0.0 1.0 0.00 0.36 0.36 99 1006.4
20260506100631 43 56 1.0 2.0 0.00 0.36 0.36 99 1006.1
20260506100128 44 49 2.0 3.0 0.00 0.36 0.36 99 1006.0
20260506095627 44 83 0.0 1.0 0.00 0.36 0.36 99 1005.8
20260506095123 45 28 0.0 1.0 0.00 0.36 0.36 99 1005.6
20260506094621 45 45 1.0 1.0 0.00 0.36 0.36 99 1005.6
20260506094118 45 69 0.0 0.0 0.00 0.36 0.36 99 1005.9
20260506093617 45 61 0.0 1.0 0.00 0.36 0.36 99 1005.8
20260506093114 45 63 0.0 0.0 0.00 0.36 0.36 99 1005.6
20260506092612 45 35 2.0 3.0 0.00 0.36 0.36 99 1005.4
20260506092108 45 49 4.0 4.0 0.00 0.36 0.36 99 1005.2
20260506091606 44 23 2.0 3.0 0.00 0.36 0.36 99 1004.9
20260506091103 44 74 2.0 3.0 0.00 0.36 0.36 99 1004.7
20260506090601 44 32 3.0 3.0 0.00 0.36 0.36 99 1005.1
20260506090057 44 48 2.0 3.0 0.00 0.36 0.36 99 1005.2
20260506085554 44 43 2.0 3.0 0.00 0.36 0.36 99 1005.8
20260506085050 44 72 1.0 1.0 0.07 0.36 0.36 99 1006.1
20260506084547 44 22 1.0 1.0 0.07 0.36 0.36 99 1006.1
20260506084044 44 52 4.0 6.0 0.00 0.35 0.35 99 1006.0
20260506083541 44 33 3.0 3.0 0.05 0.35 0.35 99 1006.0
20260506083038 44 98 0.0 1.0 0.05 0.35 0.35 99 1005.8
20260506082535 44 57 1.0 1.0 0.00 0.34 0.34 99 1006.1
20260506082031 44 58 0.0 2.0 0.00 0.34 0.34 99 1006.0
20260506081529 44 77 0.0 1.0 0.00 0.34 0.34 99 1005.8
20260506081026 44 30 3.0 4.0 0.00 0.34 0.34 99 1005.7
20260506080524 44 29 5.0 6.0 0.00 0.34 0.34 99 1005.7
20260506073507 45 36 1.0 3.0 0.07 0.34 0.34 99 1005.6
20260506073004 45 61 3.0 4.0 0.05 0.33 0.33 99 1005.6
20260506072501 45 36 4.0 6.0 0.12 0.33 0.33 99 1005.9
20260506071959 46 3 3.0 4.0 0.17 0.33 0.33 99 1006.0
20260506071457 46 96 1.0 2.0 0.12 0.32 0.32 99 1005.8
20260506070954 46 81 0.0 0.0 0.12 0.30 0.30 99 1006.1
20260506070451 46 74 0.0 0.0 0.12 0.30 0.30 99 1005.9
20260506062428 45 78 0.0 0.0 0.24 0.23 0.23 99 1005.5
20260506061924 45 31 0.0 0.0 0.19 0.21 0.21 99 1005.3
20260506061421 45 92 0.0 0.0 0.12 0.19 0.19 99 1005.5
20260506060919 45 48 0.0 0.0 0.12 0.18 0.18 99 1005.5
20260506060417 45 75 0.0 0.0 0.19 0.17 0.17 99 1005.8
20260506051348 45 67 0.0 1.0 0.00 0.08 0.08 99 1005.6
20260506050846 45 37 3.0 3.0 0.07 0.08 0.08 99 1005.6
20260506050343 45 40 4.0 4.0 0.19 0.08 0.08 99 1006.0
20260506044833 46 65 0.0 0.0 0.07 0.04 0.04 99 1006.2
20260506044332 46 1 4.0 4.0 0.00 0.03 0.03 99 1006.2
20260506043828 46 78 0.0 0.0 0.05 0.03 0.03 99 1005.9
20260506043326 46 61 1.0 1.0 0.05 0.03 0.03 99 1006.0
20260506042824 46 52 0.0 0.0 0.05 0.03 0.03 99 1005.9
20260506042323 46 36 3.0 4.0 0.07 0.02 0.02 99 1005.8
20260506041821 46 39 2.0 2.0 0.07 0.02 0.02 99 1005.6
20260506041318 46 48 1.0 2.0 0.00 0.01 0.01 99 1005.5
20260506040815 46 16 0.0 2.0 0.05 0.01 0.01 99 1005.6
20260506040312 46 25 3.0 3.0 0.05 0.01 0.01 99 1005.6
20260506035808 46 25 6.0 8.0 0.00 1.13 1.13 99 1005.5
20260506035306 46 40 4.0 6.0 0.07 1.13 1.13 99 1005.7
20260506034803 46 53 1.0 1.0 0.07 1.13 1.13 99 1005.6
20260506034300 46 45 2.0 3.0 0.07 1.12 1.12 99 1005.6
20260506033757 46 60 2.0 2.0 0.07 1.12 1.12 98 1005.8
20260506033253 47 41 1.0 2.0 0.05 1.11 1.11 99 1005.8
20260506032750 47 46 3.0 3.0 0.12 1.11 1.11 98 1006.0
20260506032247 47 33 4.0 4.0 0.12 1.10 1.10 98 1005.8
20260506031744 47 43 1.0 1.0 0.12 1.09 1.09 98 1006.2
20260506031241 47 34 5.0 6.0 0.17 1.09 1.09 98 1006.2
20260506030739 47 31 5.0 7.0 0.19 1.08 1.08 98 1006.4
20260506030237 47 53 1.0 2.0 0.12 1.06 1.06 98 1006.6
20260506025733 47 71 0.0 0.0 0.12 1.05 1.05 98 1006.5
20260506025229 47 335 2.0 2.0 0.12 1.04 1.04 98 1006.5
20260506024721 47 72 0.0 0.0 0.05 1.03 1.03 98 1006.7
20260506024218 47 31 4.0 7.0 0.07 1.02 1.02 98 1006.9
20260506023714 47 49 4.0 6.0 0.12 1.02 1.02 98 1006.8
20260506023211 47 14 1.0 1.0 0.05 1.01 1.01 98 1006.9
20260506022708 47 70 0.0 0.0 0.07 1.00 1.00 98 1007.1
20260506022206 48 56 3.0 4.0 0.14 1.00 1.00 98 1006.9
20260506021704 48 89 0.0 1.0 0.19 0.99 0.99 98 1007.1
20260506021200 48 51 0.0 1.0 0.17 0.98 0.98 98 1007.0
20260506020657 48 75 1.0 2.0 0.17 0.96 0.96 98 1007.1
20260506020155 48 69 0.0 1.0 0.24 0.95 0.95 98 1006.5
20260506015652 49 62 1.0 2.0 0.31 0.93 0.93 98 1006.5
20260506015150 49 82 0.0 0.0 0.31 0.91 0.91 98 1006.4
20260506014647 49 98 1.0 1.0 0.19 0.88 0.88 98 1006.5
20260506014143 49 23 6.0 7.0 0.12 0.86 0.86 98 1006.3
20260506013641 49 123 0.0 0.0 0.17 0.85 0.85 98 1006.3
20260506013138 49 80 1.0 1.0 0.19 0.84 0.84 98 1006.2
20260506012633 49 328 2.0 2.0 0.12 0.82 0.82 98 1006.0
20260506012130 49 18 4.0 6.0 0.05 0.81 0.81 98 1005.7
20260506011628 49 25 4.0 8.0 0.07 0.80 0.80 98 1005.9
20260506011124 49 9 6.0 8.0 0.12 0.80 0.80 98 1005.8
20260506010623 49 66 0.0 1.0 0.12 0.79 0.79 98 1006.0
20260506010119 49 53 0.0 0.0 0.19 0.78 0.78 98 1006.0
20260506005616 49 80 2.0 3.0 0.19 0.77 0.77 98 1006.1
20260506005113 50 64 2.0 2.0 0.12 0.75 0.75 98 1006.0
20260506004610 50 60 4.0 6.0 0.17 0.74 0.74 98 1005.9
20260506004107 50 30 1.0 2.0 0.24 0.73 0.73 98 1005.8
20260506003603 50 104 0.0 1.0 0.31 0.71 0.71 98 1005.9
20260506003059 50 122 2.0 2.0 0.35 0.69 0.69 98 1005.9
20260506002555 51 35 2.0 3.0 0.42 0.67 0.67 98 1005.6
20260506002051 51 79 1.0 1.0 0.31 0.63 0.63 98 1005.4
20260506001548 51 353 3.0 3.0 0.28 0.61 0.61 98 1005.5
20260506001045 52 66 2.0 3.0 0.35 0.58 0.58 98 1005.4
20260506000542 53 53 1.0 1.0 0.28 0.55 0.55 98 1005.2
20260506000040 54 85 1.0 1.0 0.31 0.53 0.53 98 1005.3
20260505235537 54 69 2.0 2.0 0.26 0.50 0.50 98 1005.0
20260505235034 54 71 1.0 1.0 0.17 0.48 0.48 98 1004.8
20260505234531 54 94 1.0 1.0 0.12 0.46 0.46 98 1004.7
20260505234028 54 112 2.0 3.0 0.07 0.45 0.45 98 1004.5
20260505233525 54 68 0.0 0.0 0.00 0.44 0.44 97 1004.8
20260505233023 54 63 2.0 2.0 0.00 0.44 0.44 97 1004.6
20260505232521 54 88 2.0 2.0 0.00 0.44 0.44 97 1004.9
20260505232018 54 67 0.0 0.0 0.00 0.44 0.44 97 1004.9
20260505231514 54 88 1.0 1.0 0.05 0.44 0.44 97 1005.0
20260505231013 54 65 2.0 3.0 0.05 0.44 0.44 97 1005.0
20260505230510 54 70 1.0 1.0 0.00 0.43 0.43 97 1005.0
20260505230007 54 50 1.0 1.0 0.00 0.43 0.43 97 1005.1
20260505225504 54 93 0.0 1.0 0.00 0.43 0.43 97 1005.3
20260505224959 54 97 0.0 1.0 0.07 0.43 0.43 97 1005.1
20260505224456 55 43 1.0 2.0 0.19 0.43 0.43 97 1005.3
20260505223954 55 81 1.0 1.0 0.17 0.42 0.42 97 1005.5
20260505223450 55 79 1.0 1.0 0.17 0.40 0.40 97 1005.4
20260505222947 57 10 2.0 2.0 0.12 0.39 0.39 96 1005.7
20260505222443 59 246 2.0 3.0 0.07 0.37 0.37 97 1005.4
20260505221939 58 304 1.0 1.0 0.19 0.37 0.37 97 1005.4